Time,TemperatureF,DewpointF,PressureIn,WindDirection,WindDirectionDegrees,WindSpeedMPH,WindSpeedGustMPH,Humidity,HourlyPrecipIn,Conditions,Clouds,dailyrainin,SolarRadiationWatts/m^2,SoftwareType,DateUTC
2013-06-05 00:13:00,54.0,51.0,-100.00,ENE,63,0.0,2.0,88,0.00,,,0.00,0.000000,,2013-06-05 04:13:00,
2013-06-05 00:23:00,54.0,51.0,-100.00,ENE,63,0.0,2.0,88,0.00,,,0.00,0.000000,,2013-06-05 04:23:00,
2013-06-05 00:33:00,54.0,51.0,-100.00,ENE,63,0.0,2.0,88,0.00,,,0.00,0.000000,,2013-06-05 04:33:00,
2013-06-05 00:42:00,54.0,51.0,-100.00,ENE,63,0.0,2.0,88,0.00,,,0.00,0.000000,,2013-06-05 04:42:00,
2013-06-05 01:12:00,53.0,49.0,-100.00,NNE,20,1.0,3.0,86,0.00,,,0.00,0.000000,,2013-06-05 05:12:00,
2013-06-05 01:23:00,53.0,49.0,-100.00,NNE,20,1.0,3.0,86,0.00,,,0.00,0.000000,,2013-06-05 05:23:00,
2013-06-05 01:32:00,53.0,49.0,-100.00,NNE,20,1.0,3.0,86,0.00,,,0.00,0.000000,,2013-06-05 05:32:00,
2013-06-05 01:42:00,53.0,49.0,-100.00,NNE,20,1.0,3.0,86,0.00,,,0.00,0.000000,,2013-06-05 05:42:00,
2013-06-05 02:12:00,53.0,48.0,-100.00,North,6,0.0,3.0,84,0.00,,,0.00,0.000000,,2013-06-05 06:12:00,
2013-06-05 02:22:00,53.0,48.0,-100.00,North,6,0.0,3.0,84,0.00,,,0.00,0.000000,,2013-06-05 06:22:00,
2013-06-05 02:32:00,53.0,48.0,-100.00,North,6,0.0,3.0,84,0.00,,,0.00,0.000000,,2013-06-05 06:32:00,
2013-06-05 02:42:00,53.0,48.0,-100.00,North,6,0.0,3.0,84,0.00,,,0.00,0.000000,,2013-06-05 06:42:00,
2013-06-05 03:12:00,56.0,47.0,-100.00,East,97,2.0,3.0,73,0.00,,,0.00,0.000000,,2013-06-05 07:12:00,
2013-06-05 03:22:00,56.0,47.0,-100.00,East,97,2.0,3.0,73,0.00,,,0.00,0.000000,,2013-06-05 07:22:00,
2013-06-05 03:32:00,56.0,47.0,-100.00,East,97,2.0,3.0,73,0.00,,,0.00,0.000000,,2013-06-05 07:32:00,
2013-06-05 03:42:00,56.0,47.0,-100.00,East,97,2.0,3.0,73,0.00,,,0.00,0.000000,,2013-06-05 07:42:00,
2013-06-05 04:12:00,58.0,47.0,-100.00,ENE,67,4.0,5.0,66,0.00,,,0.00,0.000000,,2013-06-05 08:12:00,
2013-06-05 04:22:00,58.0,47.0,-100.00,ENE,67,4.0,5.0,66,0.00,,,0.00,0.000000,,2013-06-05 08:22:00,
2013-06-05 04:32:00,58.0,47.0,-100.00,ENE,67,4.0,5.0,66,0.00,,,0.00,0.000000,,2013-06-05 08:32:00,
2013-06-05 04:42:00,58.0,47.0,-100.00,ENE,67,4.0,5.0,66,0.00,,,0.00,0.000000,,2013-06-05 08:42:00,
2013-06-05 05:12:00,58.0,47.0,-100.00,ENE,74,5.0,7.0,68,0.00,,,0.00,0.000000,,2013-06-05 09:12:00,
2013-06-05 05:22:00,58.0,47.0,-100.00,ENE,74,5.0,7.0,68,0.00,,,0.00,0.000000,,2013-06-05 09:22:00,
2013-06-05 05:33:00,58.0,47.0,-100.00,ENE,74,5.0,7.0,68,0.00,,,0.00,0.000000,,2013-06-05 09:33:00,
2013-06-05 05:43:00,58.0,47.0,-100.00,ENE,74,5.0,7.0,68,0.00,,,0.00,0.000000,,2013-06-05 09:43:00,
2013-06-05 06:13:00,57.0,48.0,-100.00,ENE,69,4.0,7.0,71,0.00,,,0.00,0.000000,,2013-06-05 10:13:00,
2013-06-05 06:22:00,57.0,48.0,-100.00,ENE,69,4.0,7.0,71,0.00,,,0.00,0.000000,,2013-06-05 10:22:00,
2013-06-05 06:33:00,57.0,48.0,-100.00,ENE,69,4.0,7.0,71,0.00,,,0.00,0.000000,,2013-06-05 10:33:00,
2013-06-05 06:42:00,57.0,48.0,-100.00,ENE,69,4.0,7.0,71,0.00,,,0.00,0.000000,,2013-06-05 10:42:00,
2013-06-05 07:13:00,57.0,49.0,-100.00,ENE,72,5.0,7.0,75,0.00,,,0.00,6.000000,,2013-06-05 11:13:00,
2013-06-05 07:22:00,57.0,49.0,-100.00,ENE,72,5.0,7.0,75,0.00,,,0.00,6.000000,,2013-06-05 11:22:00,
2013-06-05 07:33:00,57.0,49.0,-100.00,ENE,72,5.0,7.0,75,0.00,,,0.00,6.000000,,2013-06-05 11:33:00,
2013-06-05 07:42:00,57.0,49.0,-100.00,ENE,72,5.0,7.0,75,0.00,,,0.00,6.000000,,2013-06-05 11:42:00,
2013-06-05 08:12:00,59.0,50.0,-100.00,ENE,73,5.0,7.0,73,0.00,,,0.00,78.000000,,2013-06-05 12:12:00,
2013-06-05 08:22:00,59.0,50.0,-100.00,ENE,73,5.0,7.0,73,0.00,,,0.00,78.000000,,2013-06-05 12:22:00,
2013-06-05 08:32:00,59.0,50.0,-100.00,ENE,73,5.0,7.0,73,0.00,,,0.00,78.000000,,2013-06-05 12:32:00,
2013-06-05 08:44:00,59.0,50.0,-100.00,ENE,73,5.0,7.0,73,0.00,,,0.00,78.000000,,2013-06-05 12:44:00,
2013-06-05 09:12:00,64.0,52.0,-100.00,ENE,78,5.0,7.0,65,0.00,,,0.00,202.000000,,2013-06-05 13:12:00,
2013-06-05 09:22:00,64.0,52.0,-100.00,ENE,78,5.0,7.0,65,0.00,,,0.00,202.000000,,2013-06-05 13:22:00,
2013-06-05 09:33:00,64.0,52.0,-100.00,ENE,78,5.0,7.0,65,0.00,,,0.00,202.000000,,2013-06-05 13:33:00,
2013-06-05 09:42:00,64.0,52.0,-100.00,ENE,78,5.0,7.0,65,0.00,,,0.00,202.000000,,2013-06-05 13:42:00,
2013-06-05 10:12:00,69.0,51.0,-100.00,East,87,7.0,10.0,52,0.00,,,0.00,395.000000,,2013-06-05 14:12:00,
2013-06-05 10:22:00,69.0,51.0,-100.00,East,87,7.0,10.0,52,0.00,,,0.00,395.000000,,2013-06-05 14:22:00,
2013-06-05 10:32:00,69.0,51.0,-100.00,East,87,7.0,10.0,52,0.00,,,0.00,395.000000,,2013-06-05 14:32:00,
2013-06-05 10:42:00,69.0,51.0,-100.00,East,87,7.0,10.0,52,0.00,,,0.00,395.000000,,2013-06-05 14:42:00,
2013-06-05 11:12:00,73.0,54.0,-100.00,East,99,7.0,10.0,52,0.00,,,0.00,727.000000,,2013-06-05 15:12:00,
2013-06-05 11:23:00,73.0,54.0,-100.00,East,99,7.0,10.0,52,0.00,,,0.00,727.000000,,2013-06-05 15:23:00,
2013-06-05 11:33:00,73.0,54.0,-100.00,East,99,7.0,10.0,52,0.00,,,0.00,727.000000,,2013-06-05 15:33:00,
2013-06-05 11:43:00,73.0,54.0,-100.00,East,99,7.0,10.0,52,0.00,,,0.00,727.000000,,2013-06-05 15:43:00,
2013-06-05 12:13:00,77.0,57.0,-100.00,East,99,4.0,11.0,50,0.00,,,0.00,895.000000,,2013-06-05 16:13:00,
2013-06-05 12:23:00,77.0,57.0,-100.00,East,99,4.0,11.0,50,0.00,,,0.00,895.000000,,2013-06-05 16:23:00,
2013-06-05 12:32:00,77.0,57.0,-100.00,East,99,4.0,11.0,50,0.00,,,0.00,895.000000,,2013-06-05 16:32:00,
2013-06-05 12:42:00,77.0,57.0,-100.00,East,99,4.0,11.0,50,0.00,,,0.00,895.000000,,2013-06-05 16:42:00,
2013-06-05 13:13:00,78.0,57.0,-100.00,East,90,5.0,9.0,49,0.00,,,0.00,747.000000,,2013-06-05 17:13:00,
2013-06-05 13:22:00,78.0,57.0,-100.00,East,90,5.0,9.0,49,0.00,,,0.00,747.000000,,2013-06-05 17:22:00,
2013-06-05 13:33:00,78.0,57.0,-100.00,East,90,5.0,9.0,49,0.00,,,0.00,747.000000,,2013-06-05 17:33:00,
2013-06-05 13:43:00,78.0,57.0,-100.00,East,90,5.0,9.0,49,0.00,,,0.00,747.000000,,2013-06-05 17:43:00,
2013-06-05 14:13:00,80.0,57.0,-100.00,ENE,66,7.0,10.0,46,0.00,,,0.00,917.000000,,2013-06-05 18:13:00,
2013-06-05 14:23:00,80.0,57.0,-100.00,ENE,66,7.0,10.0,46,0.00,,,0.00,917.000000,,2013-06-05 18:23:00,
2013-06-05 14:32:00,80.0,57.0,-100.00,ENE,66,7.0,10.0,46,0.00,,,0.00,917.000000,,2013-06-05 18:32:00,
2013-06-05 14:42:00,80.0,57.0,-100.00,ENE,66,7.0,10.0,46,0.00,,,0.00,917.000000,,2013-06-05 18:42:00,
2013-06-05 15:13:00,80.0,58.0,-100.00,NE,47,4.0,11.0,47,0.00,,,0.00,864.000000,,2013-06-05 19:13:00,
2013-06-05 15:23:00,80.0,58.0,-100.00,NE,47,4.0,11.0,47,0.00,,,0.00,864.000000,,2013-06-05 19:23:00,
2013-06-05 15:32:00,80.0,58.0,-100.00,NE,47,4.0,11.0,47,0.00,,,0.00,864.000000,,2013-06-05 19:32:00,
2013-06-05 15:42:00,80.0,58.0,-100.00,NE,47,4.0,11.0,47,0.00,,,0.00,864.000000,,2013-06-05 19:42:00,
2013-06-05 16:12:00,81.0,59.0,-100.00,NE,34,6.0,10.0,48,0.00,,,0.00,533.000000,,2013-06-05 20:12:00,
2013-06-05 16:23:00,81.0,59.0,-100.00,NE,34,6.0,10.0,48,0.00,,,0.00,533.000000,,2013-06-05 20:23:00,
2013-06-05 16:32:00,81.0,59.0,-100.00,NE,34,6.0,10.0,48,0.00,,,0.00,533.000000,,2013-06-05 20:32:00,
2013-06-05 16:42:00,81.0,59.0,-100.00,NE,34,6.0,10.0,48,0.00,,,0.00,533.000000,,2013-06-05 20:42:00,
2013-06-05 17:12:00,80.0,59.0,-100.00,NE,50,4.0,12.0,48,0.00,,,0.00,577.000000,,2013-06-05 21:12:00,
2013-06-05 17:22:00,80.0,59.0,-100.00,NE,50,4.0,12.0,48,0.00,,,0.00,577.000000,,2013-06-05 21:22:00,
2013-06-05 17:33:00,80.0,59.0,-100.00,NE,50,4.0,12.0,48,0.00,,,0.00,577.000000,,2013-06-05 21:33:00,
2013-06-05 17:43:00,80.0,59.0,-100.00,NE,50,4.0,12.0,48,0.00,,,0.00,577.000000,,2013-06-05 21:43:00,
2013-06-05 18:13:00,79.0,59.0,-100.00,NE,37,6.0,10.0,50,0.00,,,0.00,276.000000,,2013-06-05 22:13:00,
2013-06-05 18:22:00,79.0,59.0,-100.00,NE,37,6.0,10.0,50,0.00,,,0.00,276.000000,,2013-06-05 22:22:00,
2013-06-05 18:33:00,79.0,59.0,-100.00,NE,37,6.0,10.0,50,0.00,,,0.00,276.000000,,2013-06-05 22:33:00,
2013-06-05 18:42:00,79.0,59.0,-100.00,NE,37,6.0,10.0,50,0.00,,,0.00,276.000000,,2013-06-05 22:42:00,
2013-06-05 19:12:00,78.0,58.0,-100.00,NE,49,7.0,11.0,51,0.00,,,0.00,285.000000,,2013-06-05 23:12:00,
2013-06-05 19:22:00,78.0,58.0,-100.00,NE,49,7.0,11.0,51,0.00,,,0.00,285.000000,,2013-06-05 23:22:00,
2013-06-05 19:32:00,78.0,58.0,-100.00,NE,49,7.0,11.0,51,0.00,,,0.00,285.000000,,2013-06-05 23:32:00,
2013-06-05 19:42:00,78.0,58.0,-100.00,NE,49,7.0,11.0,51,0.00,,,0.00,285.000000,,2013-06-05 23:42:00,
2013-06-05 20:12:00,77.0,59.0,-100.00,ENE,65,5.0,9.0,53,0.00,,,0.00,225.000000,,2013-06-06 00:12:00,
2013-06-05 20:22:00,77.0,59.0,-100.00,ENE,65,5.0,9.0,53,0.00,,,0.00,225.000000,,2013-06-06 00:22:00,
2013-06-05 20:32:00,77.0,59.0,-100.00,ENE,65,5.0,9.0,53,0.00,,,0.00,225.000000,,2013-06-06 00:32:00,
2013-06-05 20:43:00,77.0,59.0,-100.00,ENE,65,5.0,9.0,53,0.00,,,0.00,225.000000,,2013-06-06 00:43:00,
2013-06-05 21:13:00,73.0,61.0,-100.00,NE,43,1.0,8.0,65,0.00,,,0.00,64.000000,,2013-06-06 01:13:00,
2013-06-05 21:22:00,73.0,61.0,-100.00,NE,43,1.0,8.0,65,0.00,,,0.00,64.000000,,2013-06-06 01:22:00,
2013-06-05 21:32:00,73.0,61.0,-100.00,NE,43,1.0,8.0,65,0.00,,,0.00,64.000000,,2013-06-06 01:32:00,
2013-06-05 21:42:00,73.0,61.0,-100.00,NE,43,1.0,8.0,65,0.00,,,0.00,64.000000,,2013-06-06 01:42:00,
2013-06-05 22:12:00,67.0,61.0,-100.00,SSW,207,0.0,2.0,81,0.00,,,0.00,4.000000,,2013-06-06 02:12:00,
2013-06-05 22:22:00,67.0,61.0,-100.00,SSW,207,0.0,2.0,81,0.00,,,0.00,4.000000,,2013-06-06 02:22:00,
2013-06-05 23:12:00,64.0,60.0,-100.00,NW,311,4.0,-999.0,88,0.00,,,0.00,0.000000,,2013-06-06 03:12:00,
2013-06-05 23:22:00,64.0,60.0,-100.00,NW,311,4.0,-999.0,88,0.00,,,0.00,0.000000,,2013-06-06 03:22:00,
2013-06-05 23:33:00,64.0,60.0,-100.00,NW,311,4.0,-999.0,88,0.00,,,0.00,0.000000,,2013-06-06 03:33:00,
2013-06-05 23:43:00,64.0,60.0,-100.00,NW,311,4.0,-999.0,88,0.00,,,0.00,0.000000,,2013-06-06 03:43:00,